This is the latest recevied weather packets stored in our database for station/object KV9E. If no packets are shown the sender has not sent any weather packets the latest 10 day(s).
| Time | Temp. | Humidity | Pressure | Rain* | Wind** | Luminosity | Snow |
|---|---|---|---|---|---|---|---|
| 1778338435 | 15° C | 87% | 1010.7 hPa | 0 mm | - | 204 W/m² | - |
| 1778338132 | 14.44° C | 88% | 1010.7 hPa | 0 mm | - | 161 W/m² | - |
| 1778337829 | 14.44° C | 89% | 1010.7 hPa | 0 mm | - | 139 W/m² | - |
| 1778337526 | 14.44° C | 88% | 1010.7 hPa | 0 mm | - | 160 W/m² | - |
| 1778337224 | 13.89° C | 88% | 1010.7 hPa | 0 mm | - | 182 W/m² | - |
| 1778336920 | 13.89° C | 89% | 1010.8 hPa | 0 mm | - | 159 W/m² | - |
| 1778336616 | 13.89° C | 89% | 1010.9 hPa | 0 mm | - | 99 W/m² | - |
| 1778336312 | 13.89° C | 89% | 1010.9 hPa | 0 mm | - | 120 W/m² | - |
| 1778336009 | 13.89° C | 89% | 1010.7 hPa | 0 mm | - | 98 W/m² | - |
| 1778335705 | 13.89° C | 89% | 1010.7 hPa | 0 mm | - | 155 W/m² | - |
| 1778335403 | 13.89° C | 90% | 1010.6 hPa | 0 mm | - | 142 W/m² | - |
| 1778335101 | 13.33° C | 90% | 1010.6 hPa | 0 mm | - | 119 W/m² | - |
| 1778334798 | 13.33° C | 91% | 1010.6 hPa | 0 mm | - | 114 W/m² | - |
| 1778334495 | 13.33° C | 91% | 1010.4 hPa | 0 mm | - | 139 W/m² | - |
| 1778334192 | 13.33° C | 91% | 1010.7 hPa | 0 mm | - | 113 W/m² | - |
| 1778333889 | 12.78° C | 92% | 1010.5 hPa | 0 mm | - | 139 W/m² | - |
| 1778333586 | 12.78° C | 92% | 1010.6 hPa | 0 mm | - | 126 W/m² | - |
| 1778333284 | 12.78° C | 92% | 1010.9 hPa | 0 mm | - | 91 W/m² | - |
| 1778332983 | 12.78° C | 92% | 1010.5 hPa | 0 mm | - | 95 W/m² | - |
| 1778332679 | 12.78° C | 92% | 1010.8 hPa | 0 mm | - | 90 W/m² | - |
| 1778332376 | 12.78° C | 91% | 1010.7 hPa | 0 mm | - | 95 W/m² | - |
| 1778332072 | 12.78° C | 91% | 1010.7 hPa | 0 mm | - | 93 W/m² | - |
| 1778331768 | 12.78° C | 91% | 1010.6 hPa | 0 mm | - | 87 W/m² | - |
| 1778331464 | 12.78° C | 91% | 1010.6 hPa | 0 mm | - | 82 W/m² | - |
| 1778331162 | 12.22° C | 91% | 1010.8 hPa | 0 mm | - | 85 W/m² | - |
* Rain latest hour (hover to see other rain measurements)
** Current wind speed in m/s (hover to see current wind gust speed)